sat.trackr.live / text

‹ back to catalog

STARLINK-35512

NORAD 66330 · 2025-253M

PAYLOAD ACTIVE UNKNOWN

§ Identity

Operator
Country
US
Launch date
2025-11-06
Launch site
AFETR
Launch vehicle
Mass (kg)
RCS (m²)

Purposes: comms

External: N2YO · Heavens-Above · Gunter

§ Orbital elements

Epoch: 2026-05-24T11:33:12.759552Z

Period
94.27 min
Inclination
43.0003°
Eccentricity
0.0002026
Mean motion
15.27590872 rev/d
Perigee alt
481.6 km
Apogee alt
484.4 km
Semi-major
6,861.2 km
B*
6.7409e-4
RAAN
144.6676°
Arg perigee
270.3392°
Mean anomaly
89.7228°
Rev number
3,183

§ Raw data

STARLINK-355121 66330U 25253M   26144.48139768  .00018340  00000+0  67409-3 0  99922 66330  43.0003 144.6676 0002026 270.3392  89.7228 15.27590872 31837

JSON: /api/v1/satellites/66330 · /tle

For live sub-satellite position, see the globe view (requires WebGL).

§ Visibility from observer

Set your observer location to see the next 7 days of passes ≥ 10°. The values pass through the URL so the page stays shareable.

No JS? Fill the form by hand. The geolocation button needs JavaScript.